Regional Weather Roundup
Issued by NWS Wakefield, VA

Home | Current Version | Previous Version | Graphics & Text | Print | Product List | Glossary On
Versions: 1 2 3 4 5 6 7 8 9 10 11 12 13 14 15 16 17 18 19 20 21 22 23 24 25
536
ASUS41 KAKQ 211814
RWRAKQ

REGIONAL WEATHER ROUNDUP
NATIONAL WEATHER SERVICE WAKEFIELD VA
200 PM EDT THU MAY 21 2015

Note: "fair" indicates few or no clouds below 12,000 feet with no
significant weather and/or obstructions to visibility. * = Denotes
station may not report precipitation (e.g., rain,snow,etc.),
thunder or fog.

VAZ042-051-052>054-056-211900-
NORTHERN VIRGINIA

CITY           SKY/WX    TMP DP  RH WIND       PRES   REMARKS
WASH NATIONAL  LGT RAIN  53  48  83 E9        29.98F
DULLES         CLOUDY    51  48  89 E8        29.97F
FORT BELVOIR   DRIZZLE   51  49  93 VRB5      29.97F FOG
QUANTICO       RAIN      55  52  88 E13       29.96F FOG
FREDERICKSBRG* RAIN      56  56 100 NE7       29.94F
STAFFORD*      RAIN      53  51  94 NE8       29.98F
WARRENTON      DRIZZLE   54  53  97 E7        29.95F
CULPEPER*      RAIN      53  52  95 N5        29.96F
MANASSAS*      NOT AVBL
LEESBURG*      CLOUDY    52  52 100 E3        29.98F
WINCHESTER     CLOUDY    54  46  76 CALM      29.95F
FRONT ROYAL*   CLOUDY    52  50  93 CALM      29.94F
LURAY*         CLOUDY    55  54  94 N3        29.95F
$$

VAZ048-049-060>072-079>083-211900-
CENTRAL AND SOUTH CENTRAL VIRGINIA

CITY           SKY/WX    TMP DP  RH WIND       PRES   REMARKS
RICHMOND       RAIN      57  54  89 N12       29.90F FOG
CHESTERFIELD*  NOT AVBL
PETERSBURG*    LGT RAIN  58  57  95 N10       29.89F
HANOVER        LGT RAIN  55  54  96 VRB6      29.93F FOG
TAPPAHANNOCK*  HVY RAIN  56  52  88 N8        29.93F
QUINTON*       CLOUDY    56  55  97 NE6       29.90F
CHARLOTTSVILLE CLOUDY    53  50  89 N7        29.94S FOG
GORDONSVILLE*  CLOUDY    54  52  93 NE7       29.93F
ORANGE*        CLOUDY    55  54  94 N8        29.95F
LOUISA*        DRIZZLE   55  54  94 NE8       29.91F
BUMPASS*       CLOUDY    54  53  96 NE5       29.94S
FARMVILLE*     CLOUDY    57  57 100 N10       29.90F FOG
CREWE*         CLOUDY    56  55  95 N5        29.91S
FORT PICKETT*  CLOUDY    56  56  97 N9G16     29.90R
CHASE CITY*    CLOUDY    60  60 100 N5        29.89F
CLARKSVILLE*   CLOUDY    59  59 100 N12       29.87F
SOUTH HILL*    CLOUDY    58  57  96 N9        29.94R
LAWRENCEVILLE* CLOUDY    59  57  94 N3        29.87R
EMPORIA*       HVY RAIN  59  57  94 NE6       29.86S
$$

VAZ088>098-211900-
SOUTHEAST VIRGINIA

CITY           SKY/WX    TMP DP  RH WIND       PRES   REMARKS
NORFOLK        CLOUDY    66  58  75 S5        29.84S
VIRGINIA BEACH CLOUDY    68  59  73 SE13G22   29.83F
NORFOLK NAVAL  CLOUDY    69  61  75 E3        29.86F
WEST POINT*    CLOUDY    61  58  91 N7        29.90F
SALUDA*        CLOUDY    58  56  94 NE10      29.90F
NEWPORT NEWS   HVY RAIN  65  59  81 NE8       29.87F
LANGLEY AFB    CLOUDY    62  60  93 E13       29.85F
FORT EUSTIS    HVY RAIN  63  63 100 NE6       29.85F FOG
WILLIAMSBURG*  CLOUDY    64  63  94 NE3       29.88F VSB 1/2
HR EXEC AP*    CLOUDY    66  61  82 CALM      29.86F
FRANKLIN*      CLOUDY    63  60  93 N7        29.84F
WAKEFIELD      LGT RAIN  61  59  93 N5        29.86F FOG
$$

VAZ020-022-025-037-045-211900-
WEST CENTRAL AND SOUTHWEST VIRGINIA

CITY           SKY/WX    TMP DP  RH WIND       PRES   REMARKS
STAUNTON*      CLOUDY    54  50  87 NE5       29.96F
WAYNESBORO*    CLOUDY    52  50  90 N6        29.94F
HOT SPRINGS VA FOG       50  50 100 W5        29.93F VSB<1/4
LYNCHBURG      CLOUDY    55  53  93 N9        29.93F
DANVILLE       LGT RAIN  60  56  86 N8        29.90F FOG
SOUTH BOSTON*  CLOUDY    58  57  94 NE5       29.89F
MARTINSVILLE   CLOUDY    63  60  91 E6        29.93F
ROANOKE        CLOUDY    60  53  77 CALM      29.94F
BLACKSBURG     CLOUDY    57  53  88 CALM      29.96F
DUBLIN*        CLOUDY    63  59  87 SW5       29.94F
MARION*        MOSUNNY   65  53  65 NW16G24   29.96F
HILLSVILLE*    CLOUDY    62  56  80 NW13G18   29.94F
RICHLANDS*     CLOUDY    54  54  99 NW6       29.98S
WISE*          CLOUDY    55  54  94 NW7       30.01S
ABINGDON*      CLOUDY    66  56  70 NW8       29.95F
$$

MDZ021>025-VAZ099-100-211900-
SOUTHERN MARYLAND AND THE DELMARVA PENINSULA

CITY           SKY/WX    TMP DP  RH WIND       PRES   REMARKS
PATUXENT RIVER LGT RAIN  53  51  93 NE15      29.95F FOG
BAY BRIDGE APT RAIN     N/A N/A N/A NE5       29.99F
LEONARDTOWN    CLOUDY    52  50  93 CALM      29.96F
DOVER          NOT AVBL
GEORGETOWN     LGT RAIN  54  50  86 N6        29.97F FOG
EASTON         RAIN      50  50 100 NE7       30.03F
CAMBRIDGE      CLOUDY    52  50  93 NE7       29.97S
SALISBURY      RAIN      54  51  90 NE9       29.94F FOG
OCEAN CITY     LGT RAIN  56  52  86 NE6       29.95F
WALLOPS ISLAND LGT RAIN  59  56  89 NE15      29.92F
ACCOMACK*      DRIZZLE   57  57 100 NE12      29.89F
$$

NCZ012>017-030>032-211900-
NORTH CENTRAL AND EASTERN NORTH CAROLINA

CITY           SKY/WX    TMP DP  RH WIND       PRES   REMARKS
ROANOKE RAPIDS CLOUDY    63  61  94 N12       29.84R
RALEIGH        CLOUDY    64  62  93 VRB5      29.85S FOG
ELIZABETH CITY PTSUNNY   73  64  73 SE16G24   29.84F
AHOSKIE*       CLOUDY    74  66  75 CALM      29.80F
EDENTON*       RAIN      75  68  79 SE8       29.82F
CURRITUCK*     CLOUDY    71  60  67 SE7       29.84F
KILL DEVIL HLS CLOUDY    72  64  77 SE9G17    29.83F
MANTEO         CLOUDY    76  66  71 SE13G23   29.84F
CAPE HATTERAS  CLOUDY    76  68  76 SE16      29.85F
TARBORO*       MOCLDY    82  69  64 SE5       29.78F
GOLDSBORO      PTSUNNY   83  70  64 S7        29.74F
WASHINGTON     MOSUNNY   81  70  69 SE8       29.79F
GREENVILLE     MOSUNNY   84  70  61 S12       29.80F
NEW BERN       PTSUNNY   84  70  62 S8        29.80F
WILMINGTON     MOSUNNY   85  72  65 S10       29.79F
$$

VAZ048-211900-
ELSEWHERE

CITY           SKY/WX    TMP DP  RH WIND       PRES   REMARKS
HARRISBURG PA  CLOUDY    57  41  55 VRB3      29.97F
BALTIMORE      LGT RAIN  50  46  86 E7        29.98F FOG
ANNAPOLIS      LGT RAIN  50  47  89 NE7       29.98F FOG
ANDREWS AFB    LGT RAIN  49  48  98 NE10      29.96F
PHILADELPHIA   LGT RAIN  55  47  74 SW7       29.99F
HENDERSON NC   CLOUDY    61  58  91 N7        29.88R
GREENSBORO     CLOUDY    60  57  89 N7        29.88F
ROCKY MOUNT    PTSUNNY   81  69  67 CALM      29.78F
$$

VAZ100-211900-
MARINE

STATION/POSITION TIME  TEMP    WIND        PRES    WAVE   SWELL
                       AIR SEA DIR/SP/G            HT/PER HT/PER
                 (UTC) (F)     (DEG/KT/KT) (MB)    (FT/S) (FT/S)
BRANDYWINE LGT   1700   55 63  360/  5/  6 1015.7F
CAPE MAY NJ      1700   56 66  160/  1/  2 1015.2F
LEWES DE         1700   56 64  150/  2/  3 1015.3F
15NM E FENWICK I 1750   57 59              1014.2F   2/ 8
OCEAN-CITY-INLET 1700   57 60   40/  4/  7 1014.5F
WACHAPREAGUE VA  1700   60 68   70/ 15/ 17 1012.7F
THOMAS POINT MD  1800   49 67   60/ 12/ 13 1015.7F
GOOSES REEF MD   1800   53 67   60/ 14/ 17 1015.6F   0
COVE POINT MD    1700   52      80/ 12/ 14 1015.5F
BISHOPS HEAD MD  1700   54 65   30/ 15/ 18 1014.3F
PINEY POINT MD   1700           70/  9/ 13   N/A
CAMBRIDGE MD     1700   52 72   40/ 10/ 12 1015.1F
LEWISETTA VA     1700   57 70              1013.7F
RAPPAHANNOCK LGT 1700           50/ 18/ 20 1012.5F
STINGRAY PT      1800   60 70   60/ 16/ 19 1011.6F   2/ 3
YORK RVR RNG VA  1700   63     110/ 17/ 19 1010.5F
YORKTOWN VA      1700   63 71   80/  4/ 14 1012.2R
JAMESTOWN VA     1800   61 76   40/  6/  8 1010.6F
DOMINION TERM VA 1700   65     110/  6/ 12 1010.6F
KIPTOPEKE VA     1700      73  100/ 13/ 24   N/A
CHES BAY BRIDGE  1700   64 66   90/ 14/ 21 1010.2F
CAPE HENRY VA    1700   64     110/ 19/ 24 1009.5F
CHESAPEAKE LGHT  1700   64     100/ 20/ 22 1011.8F
WILLOUBY STN VA  1700   64     120/ 16/ 20 1011.0F
CAPE HENRY BUOY  1728      66                N/A     4/ 4
1ST LANDING BUOY 1800      65              1011.2R
CAPE CHARLES BUO 1726      66                N/A     4/ 4   2/ 9
OFFSHORE WE BUOY 1711      65                N/A     3/ 4   2/ 9
64NM E OF VA BCH 1750   65 62  110/ 14/ 16 1011.1F   3/ 9   2/ 9
DUCK PIER NC     1700   67 67  100/ 19/ 22 1010.2F
44100 DUCK FRF   1724      66                N/A     4/ 5
44056 DUCK FRF   1711      68                N/A     4/ 9
OREGON INLET NC  1700   72 69  110/  7/ 10 1011.5F
HATTERAS NC      1700   75 72  140/ 10/ 15 1011.1F
DIAMOND SHLS NC  1750   75 77  140/ 17/ 21 1010.8F   5/ 5   2/ 8
CAPE LOOKOUT NC  1800   75     160/  9/ 10 1009.6F
$$



USA.gov is the U.S. government's official web portal to all federal, state and local government web resources and services.